Regional Weather Roundup
Issued by NWS

Home | Current Version | Previous Version | Graphics & Text | Print | Product List | Glossary On
Versions: 1 2 3 4 5 6 7 8 9 10 11 12 13 14 15 16 17 18 19 20 21 22 23 24 25 26 27 28 29 30 31 32 33 34 35 36 37 38 39 40 41 42 43 44 45
000
ASUS45 KSLC 011910
RWRUT

UTAH REGIONAL WEATHER ROUNDUP
NATIONAL WEATHER SERVICE SALT LAKE CITY UT
100 PM MDT WED OCT 01 2014

UTZ001>011-023>025-012000-

NORTHERN UTAH

CITY           SKY/WX    TMP DP  RH WIND       PRES   REMARKS
HILL AFB       PTSUNNY   52  35  52 N10       30.11S
LOGAN          NOT AVBL
OGDEN          MOSUNNY   53  36  52 NW7       30.10S
PROVO AIRPORT  PTSUNNY   54  30  40 W6        30.10S
SALT LAKE CITY MOSUNNY   55  34  45 NW10      30.10S
VERNAL         PTSUNNY   50  39  66 NE16      30.01S
WENDOVER       SUNNY     55  30  38 N14G21    30.15R
HEBER CITY     CLOUDY    52  30  43 NW3       30.07S
WEST JORDAN    CLOUDY    50  36  57 NW8       30.12S

$$

UTZ012>022-026-027-012000-

SOUTHERN UTAH

CITY           SKY/WX    TMP DP  RH WIND       PRES   REMARKS
BRYCE CANYON   MOSUNNY   49  34  56 NW21G26   30.11S
CEDAR CITY     PTSUNNY   53  36  52 N10G18    30.10S
MILFORD        MOSUNNY   55  32  41 N18G25    30.12F
MOAB/CYNLANDS  LGT RAIN  54  45  71 W7        29.98F
PRICE          MOSUNNY   55  28  35 W14G25    30.03F
ST GEORGE      MOCLDY    73  41  31 NE8       29.98S
KANAB            N/A     66  39  37 S8        30.02F

$$

REGIONAL REPORTS     COLORADO/ARIZONA

CITY           SKY/WX    TMP DP  RH WIND       PRES   REMARKS
CRAIG, CO      CLOUDY    45  37  73 CALM      30.02F
GRAND JUNCTION CLOUDY    52  42  69 CALM      30.00F
RIFLE          CLOUDY    48  40  73 CALM      30.02F
MONTROSE       LGT RAIN  46  44  93 SE14      30.05F
CORTEZ         PTSUNNY   63  38  39 W15G21    29.99S
PAGE, AZ       MOSUNNY   72  37  28 N10       29.95
GRAND CANYON   PTSUNNY   60  36  40 NW10      30.08S
KINGMAN        SUNNY     76  39  26 N14       29.96S
FLAGSTAFF      PTSUNNY   62  32  32 W9G20     30.09F

$$

REGIONAL REPORTS    NEVADA/IDAHO/WYOMING

CITY           SKY/WX    TMP DP  RH WIND       PRES   REMARKS
LAS VEGAS, NV  SUNNY     82  32  16 N16G24    29.89F
ELY            SUNNY     51  22  31 N15       30.17F
ELKO           MOSUNNY   52  27  38 W7        30.19F
POCATELLO, ID  PTSUNNY   51  39  63 SW17      30.12F
BURLEY         MOSUNNY   53  38  56 W12G17    30.13F
EVANSTON, WY   LGT RAIN  41  30  65 NW12      30.09S
ROCK SPRINGS   MOSUNNY   47  27  45 W16       30.01F

$$


USA.gov is the U.S. government's official web portal to all federal, state and local government web resources and services.